Location: Butte
(46.0040°N, 112.5340°W)
Time: 12:46:54
(UTC-06:00)

Daily predictions for brighter satellites

Satellite Brightness Start Highest point End
(mag) Time Altitude Azimuth Time Altitude Azimuth Time Altitude Azimuth
NOSS 3-2 (C) 3.5 21:32:32 10° SSW 21:38:34 82° SE 21:45:16 10° NE
Cosmos 1340 4.1 21:36:59 10° NNE 21:40:02 22° ENE 21:43:04 10° ESE
Spot 1 4.5 21:36:51 10° SSE 21:41:39 75° ENE 21:46:44 10° N
Cosmos 1634 Rocket 4.1 21:35:58 10° N 21:42:16 72° E 21:48:34 10° SSE
Cosmos 2344 4.4 21:36:27 10° SSE 21:42:35 27° ESE 21:49:09 10° NE
Envisat 3.6 21:37:47 10° S 21:42:48 61° W 21:47:51 10° NNW
CZ-4B DEB 2.6 21:42:49 10° SSE 21:45:43 64° ENE 21:48:38 10° N
Cosmos 990 Rocket 4.2 21:41:16 10° SSW 21:46:28 81° WNW 21:51:45 10° NNE
NOAA 11 4.5 21:42:08 10° SSE 21:47:27 55° ENE 21:52:49 10° N
Helios 1A 3.1 21:44:34 10° SSE 21:48:45 82° WSW 21:53:00 10° NNW
Molniya-1 3.3 21:50:47 10° S 21:52:12 22° SE 21:53:31 10° ENE
SPOT 5 3.9 21:47:56 10° SE 21:52:48 37° ENE 21:57:36 10° N
CENTAUR R/B 2.9 21:47:19 10° S 21:52:53 40° ESE 21:59:07 10° NE
COSMOS 2455 2.8 21:48:18 10° SSW 21:54:15 68° ESE 22:00:14 10° NE
Cosmos 1606 3.1 21:51:21 10° N 21:55:01 44° ENE 21:58:39 10° SSE
Shenzhou-11 Module 4.4 21:53:23 10° WSW 21:55:01 14° SSW 21:56:40 10° S
SAR-Lupe-4 3.5 21:52:20 10° SSE 21:55:53 76° ENE 21:59:29 10° N
Cosmos 2369 Rocket 2.2 21:51:11 10° SSW 21:56:46 65° ESE 22:02:25 10° NNE
Resurs 01 Rocket 3.9 21:53:17 10° SSW 21:56:52 24° W 22:00:28 10° NW
Cosmos 1125 Rocket 3.9 21:52:30 10° S 21:57:24 42° ESE 22:02:19 10° NE
Cosmos 1346 Rocket 3.8 21:54:36 10° NNW 21:58:27 47° W 22:02:16 10° S
Lacrosse 5 rocket 1.2 21:56:25 10° SSW 21:59:51 47° SE 22:03:24 10° ENE
YAOGAN 6 3.2 22:00:11 10° S 22:03:49 57° W 22:07:28 10° NNW
Cosmos 1939 Rocket 4.3 22:04:03 10° SSW 22:07:55 38° W 22:11:49 10° NNW
Okean 1-7 3.2 22:10:11 10° N 22:14:36 80° W 22:19:00 10° S
GPS 2-04 Rocket1 4.4 22:12:49 10° SW 22:15:04 15° S 22:16:29 13° SSE
Cosmos 2279 Rocket 4.0 22:09:43 10° N 22:16:01 77° E 22:22:14 10° SSE
ATLAS 5 CENTAUR R/B 2.5 22:11:10 10° NW 22:17:05 80° NE 22:22:41 14° SE
SAR-Lupe-1 4.3 22:13:50 10° S 22:17:23 70° WSW 22:20:58 10° NNW
Meteor 1-29 3.4 22:16:13 10° N 22:19:43 66° WNW 22:23:10 10° SSW
Meteor 1-27 Rocket 3.9 22:15:11 10° N 22:20:54 58° ENE 22:25:43 14° SSE
Meteor 1-10 Rocket 4.4 22:15:38 10° NNW 22:21:37 87° W 22:27:31 10° S
MetOp-B 4.1 22:17:12 10° SSE 22:22:33 87° ENE 22:27:57 10° NNW
Aureole 3 3.0 22:23:37 10° SSW 22:26:37 64° W 22:29:37 10° N
H-2A R/B 2.4 22:22:47 14° SE 22:27:16 55° ENE 22:32:27 10° N
Cosmos 158 Rocket 3.9 22:23:26 10° NNW 22:28:22 79° WSW 22:32:34 14° SSE
Meteor 2-6 Rocket 4.5 22:24:13 10° NNW 22:30:10 82° W 22:36:09 10° S
Cosmos 1408 2.7 22:27:57 10° S 22:31:40 82° W 22:35:26 10° N
Cosmos 1656 Rocket 4.3 22:29:16 12° SSE 22:33:34 33° ESE 22:38:26 10° NE
ARGOS 3.2 22:29:07 12° SSE 22:34:08 89° WSW 22:39:32 10° NNW
Cosmos 1782 3.5 22:32:35 10° NNW 22:36:29 51° W 22:40:21 10° S
Cosmos 1733 Rocket 3.2 22:38:50 17° SSE 22:41:56 52° E 22:46:10 10° NNE
Cosmos 1825 2.5 22:39:05 10° SSW 22:42:50 64° W 22:46:37 10° N
DNEPR-1 R/B 3.7 22:38:55 10° SSW 22:44:02 85° ESE 22:48:29 10° NE
Helios 1B rocket 4.4 22:44:21 10° N 22:47:59 30° WNW 22:51:33 10° SW
Intercosmos 25 Rocket 4.5 22:40:11 10° N 22:48:10 69° ENE 22:51:30 21° SSE
SL-08 RB Rocket 3.8 22:45:10 17° S 22:48:50 79° WSW 22:53:32 10° NNW
ERS-1 Rocket 3.9 22:44:06 10° S 22:48:54 44° W 22:53:44 10° NNW
Cosmos 1346 4.2 22:47:13 10° NNE 22:49:31 24° ENE 22:49:46 24° E
Nimbus 7 Rocket 4.4 22:48:15 10° NNE 22:54:07 63° ESE 22:59:17 13° S
BREEZE-M DEB 4.3 22:44:28 10° WSW 22:58:33 73° NNW 23:02:16 10° ENE
Cosmos 1862 3.4 22:55:13 13° SSW 22:58:41 77° W 23:02:41 10° N
Landsat 7 3.8 22:56:22 24° SSE 22:59:10 71° ENE 23:03:56 10° N
Lacrosse 4 Rocket 2.0 22:55:11 10° NW 22:59:36 54° WSW 23:02:08 23° S
ISS -3.1 22:56:58 10° WSW 23:00:11 56° NNW 23:03:24 10° ENE
Cosmos 2227 Rocket 3.8 22:58:11 10° N 23:02:41 23° NE 23:06:32 12° E
Cosmos 1975 Rocket 4.4 22:59:52 10° NNE 23:03:41 27° ENE 23:05:13 22° ESE
Cosmos 1812 3.8 23:04:04 10° NNE 23:07:31 30° ENE 23:08:29 26° ESE
Alouette 2 Rocket 4.4 23:00:32 10° S 23:08:15 83° ESE 23:13:10 10° NNE
Meteor 2-20 4.4 23:04:28 19° S 23:08:52 67° E 23:14:56 10° NNE
Cosmos 2219 3.5 23:03:27 10° NNW 23:09:09 59° ENE 23:12:18 26° SE
ATLAS CENTAUR R/B 2.6 23:12:21 23° E 23:12:21 23° E 23:14:36 10° ENE
USA 215 3.8 23:09:49 22° SSE 23:13:50 47° SW 23:20:09 10° WNW
Terra 1.8 23:12:01 30° SSE 23:14:19 70° ENE 23:19:05 10° N
CARTOSAT-1 3.5 23:13:27 33° SSE 23:15:18 72° ENE 23:19:38 10° N
Cosmos 1437 2.6 23:12:13 10° N 23:15:27 80° E 23:16:04 54° SSE
Cosmos 2026 Rocket 4.5 23:12:37 26° SE 23:15:33 43° E 23:21:24 10° NNE
Cosmos 1340 4.5 23:12:28 10° NNW 23:15:42 27° W 23:18:27 13° SSW
DMSP B5D2-2 4.0 23:10:47 10° NNE 23:16:01 75° ESE 23:19:27 22° S
Cosmos 1674 Rocket 3.6 23:12:14 10° NNW 23:16:34 75° W 23:18:42 29° S
Cosmos 1378 Rocket 3.6 23:13:01 10° N 23:17:26 63° E 23:19:06 36° SSE
Cosmos 1943 Rocket 2.9 23:13:05 10° SW 23:18:33 53° WNW 23:24:00 10° NNE
Cosmos 2251 Rocket 3.5 23:13:41 10° NNW 23:18:57 78° ENE 23:21:25 32° SSE
Gbstr 26 Del rocket 3.7 23:19:37 10° WNW 23:24:04 49° NNE 23:26:38 20° E
SPOT 1/Viking Rocket 4.2 23:22:09 19° SSW 23:25:38 49° W 23:30:42 10° NNW
Cosmos 405 Rocket 3.2 23:25:03 10° N 23:28:36 41° ENE 23:29:06 39° E
Okean 1 4.4 23:26:26 10° NNE 23:29:58 29° ENE 23:30:35 28° E
SPOT 5 4.4 23:26:39 13° SSW 23:30:50 34° W 23:35:39 10° NNW
H-2A R/B 2.0 23:31:06 44° SE 23:32:14 67° ENE 23:36:20 10° N
GEOS 3 Rocket 3.7 23:35:54 36° SSE 23:38:01 68° SW 23:43:16 10° NW
Meteor 1-18 Rocket 4.4 23:33:08 10° N 23:38:50 65° ENE 23:41:12 36° SSE
Okean 3 3.6 23:34:52 10° NNW 23:39:02 68° W 23:40:23 40° SSW
Lacrosse 5 rocket 3.1 23:35:57 10° W 23:39:10 30° NNW 23:42:32 10° NE
Cosmos 1092 Rocket 4.0 23:36:34 20° SSW 23:40:58 76° W 23:47:09 10° N
Cosmos 2369 Rocket 4.5 23:36:40 10° WSW 23:41:17 25° NW 23:45:57 10° N
CENTAUR R/B 3.5 23:37:21 10° WSW 23:43:23 50° NW 23:50:20 10° NE
IGS 5A 3.7 23:42:12 39° SSW 23:43:31 60° W 23:47:38 10° NNW
Cosmos 1627 Rocket 4.4 23:46:11 30° S 23:49:32 85° E 23:55:55 10° N
Spot 4 3.8 23:48:22 45° SSE 23:49:51 78° ENE 23:54:42 10° NNW
CZ-4 R/B 3.7 23:45:14 10° NNE 23:49:53 65° ESE 23:50:59 48° SSE
Cosmos 1553 Rocket 4.2 23:47:13 10° N 23:53:33 62° ENE 23:56:01 37° SE
Cosmos 1441 Rocket 3.4 23:50:39 10° N 23:54:28 54° ENE 23:54:41 53° E
Cosmos 1908 Rocket 3.9 23:52:48 32° SSW 23:54:43 61° W 23:59:08 10° N
